{"data":{"norad_id":59519,"epoch":"2026-05-24T23:14:28.876128Z","epoch_age_seconds":87967,"freshness":"FRESH","line1":"1 59519U 24073J   26144.96838977 -.00002078  00000+0 -66029-4 0  9994","line2":"2 59519  43.0020 236.6640 0000915 273.0959  86.9788 15.27580723117967","mean_motion":15.27580723,"eccentricity":9.15e-5,"inclination_deg":43.002,"raan_deg":236.664,"arg_perigee_deg":273.0959,"mean_anomaly_deg":86.9788,"bstar":-6.6029e-5,"rev_number":11796,"period_min":94.266704097444,"perigee_km":482.41913278871,"apogee_km":483.67472944811,"semimajor_km":6861.1839311184,"source":"CELESTRAK","updated_at":"2026-05-25T13:38:18.975149Z"}}